Year,Month,Day,Hour,Minute,Value (Times are PST for temperature in C)
2016,11,08,00,00,13.80
2016,11,08,00,01,13.70
2016,11,08,00,02,13.60
2016,11,08,00,03,13.50
2016,11,08,00,04,13.40
2016,11,08,00,05,13.40
2016,11,08,00,06,13.30
2016,11,08,00,07,13.20
2016,11,08,00,08,13.20
2016,11,08,00,09,13.20
2016,11,08,00,10,13.10
2016,11,08,00,11,13.10
2016,11,08,00,12,13.10
2016,11,08,00,13,13.10
2016,11,08,00,14,13.10
2016,11,08,00,15,13.20
2016,11,08,00,16,13.10
2016,11,08,00,17,13.10
2016,11,08,00,18,13.10
2016,11,08,00,19,13.10
2016,11,08,00,20,13.10
2016,11,08,00,21,13.10
2016,11,08,00,22,13.00
2016,11,08,00,23,13.00
2016,11,08,00,24,13.00
2016,11,08,00,25,13.00
2016,11,08,00,26,13.00
2016,11,08,00,27,13.00
2016,11,08,00,28,13.00
2016,11,08,00,29,13.00
2016,11,08,00,30,12.90
2016,11,08,00,31,12.90
2016,11,08,00,32,12.90
2016,11,08,00,33,12.90
2016,11,08,00,34,12.90
2016,11,08,00,35,12.90
2016,11,08,00,36,12.90
2016,11,08,00,37,12.90
2016,11,08,00,38,12.90
2016,11,08,00,39,13.00
2016,11,08,00,40,13.20
2016,11,08,00,41,13.30
2016,11,08,00,42,13.40
2016,11,08,00,43,13.50
2016,11,08,00,44,13.60
2016,11,08,00,45,13.60
2016,11,08,00,46,13.60
2016,11,08,00,47,13.50
2016,11,08,00,48,13.50
2016,11,08,00,49,13.60
2016,11,08,00,50,13.70
2016,11,08,00,51,13.80
2016,11,08,00,52,13.90
2016,11,08,00,53,14.00
2016,11,08,00,54,14.00
2016,11,08,00,55,14.10
2016,11,08,00,56,14.10
2016,11,08,00,57,14.10
2016,11,08,00,58,14.10
2016,11,08,00,59,14.20
2016,11,08,01,00,14.20
2016,11,08,01,01,14.20
2016,11,08,01,02,14.20
2016,11,08,01,03,14.30
2016,11,08,01,04,14.30
2016,11,08,01,05,14.30
2016,11,08,01,06,14.30
2016,11,08,01,07,14.30
2016,11,08,01,08,14.30
2016,11,08,01,09,14.30
2016,11,08,01,10,14.20
2016,11,08,01,11,14.20
2016,11,08,01,12,14.20
2016,11,08,01,13,14.10
2016,11,08,01,14,14.10
2016,11,08,01,15,14.20
2016,11,08,01,16,14.20
2016,11,08,01,17,14.20
2016,11,08,01,18,14.20
2016,11,08,01,19,14.10
2016,11,08,01,20,14.10
2016,11,08,01,21,14.00
2016,11,08,01,22,14.00
2016,11,08,01,23,14.00
2016,11,08,01,24,14.00
2016,11,08,01,25,14.00
2016,11,08,01,26,14.00
2016,11,08,01,27,13.90
2016,11,08,01,28,13.90
2016,11,08,01,29,13.90
2016,11,08,01,30,13.90
2016,11,08,01,31,13.90
2016,11,08,01,32,13.90
2016,11,08,01,33,13.90
2016,11,08,01,34,13.90
2016,11,08,01,35,13.90
2016,11,08,01,36,14.00
2016,11,08,01,37,14.10
2016,11,08,01,38,14.10
2016,11,08,01,39,14.10
2016,11,08,01,40,14.00
2016,11,08,01,41,14.00
2016,11,08,01,42,13.90
2016,11,08,01,43,13.90
2016,11,08,01,44,13.90
2016,11,08,01,45,13.80
2016,11,08,01,46,13.80
2016,11,08,01,47,13.80
2016,11,08,01,48,13.80
2016,11,08,01,49,13.80
2016,11,08,01,50,13.80
2016,11,08,01,51,13.80
2016,11,08,01,52,13.80
2016,11,08,01,53,13.80
2016,11,08,01,54,13.80
2016,11,08,01,55,13.80
2016,11,08,01,56,13.80
2016,11,08,01,57,13.70
2016,11,08,01,58,13.70
2016,11,08,01,59,13.70
2016,11,08,02,00,13.60
2016,11,08,02,01,13.60
2016,11,08,02,02,13.60
2016,11,08,02,03,13.50
2016,11,08,02,04,13.50
2016,11,08,02,05,13.50
2016,11,08,02,06,13.50
2016,11,08,02,07,13.50
2016,11,08,02,08,13.50
2016,11,08,02,09,13.50
2016,11,08,02,10,13.40
2016,11,08,02,11,13.40
2016,11,08,02,12,13.30
2016,11,08,02,13,13.30
2016,11,08,02,14,13.30
2016,11,08,02,15,13.20
2016,11,08,02,16,13.20
2016,11,08,02,17,13.20
2016,11,08,02,18,13.20
2016,11,08,02,19,13.10
2016,11,08,02,20,13.10
2016,11,08,02,21,13.10
2016,11,08,02,22,13.00
2016,11,08,02,23,13.00
2016,11,08,02,24,13.00
2016,11,08,02,25,12.90
2016,11,08,02,26,12.90
2016,11,08,02,27,12.90
2016,11,08,02,28,13.00
2016,11,08,02,29,13.00
2016,11,08,02,30,13.00
2016,11,08,02,31,13.10
2016,11,08,02,32,13.10
2016,11,08,02,33,13.10
2016,11,08,02,34,13.30
2016,11,08,02,35,13.30
2016,11,08,02,36,13.40
2016,11,08,02,37,13.40
2016,11,08,02,38,13.40
2016,11,08,02,39,13.40
2016,11,08,02,40,13.40
2016,11,08,02,41,13.40
2016,11,08,02,42,13.40
2016,11,08,02,43,13.40
2016,11,08,02,44,13.50
2016,11,08,02,45,13.50
2016,11,08,02,46,13.60
2016,11,08,02,47,13.60
2016,11,08,02,48,13.60
2016,11,08,02,49,13.60
2016,11,08,02,50,13.70
2016,11,08,02,51,13.80
2016,11,08,02,52,13.90
2016,11,08,02,53,14.00
2016,11,08,02,54,14.10
2016,11,08,02,55,14.10
2016,11,08,02,56,14.20
2016,11,08,02,57,14.20
2016,11,08,02,58,14.30
2016,11,08,02,59,14.30
2016,11,08,03,00,14.30
2016,11,08,03,01,14.30
2016,11,08,03,02,14.30
2016,11,08,03,03,14.30
2016,11,08,03,04,14.30
2016,11,08,03,05,14.20
2016,11,08,03,06,14.20
2016,11,08,03,07,14.20
2016,11,08,03,08,14.10
2016,11,08,03,09,14.10
2016,11,08,03,10,14.10
2016,11,08,03,11,14.10
2016,11,08,03,12,14.00
2016,11,08,03,13,14.00
2016,11,08,03,14,14.00
2016,11,08,03,15,13.90
2016,11,08,03,16,13.90
2016,11,08,03,17,13.90
2016,11,08,03,18,13.80
2016,11,08,03,19,13.80
2016,11,08,03,20,13.80
2016,11,08,03,21,13.80
2016,11,08,03,22,13.80
2016,11,08,03,23,13.80
2016,11,08,03,24,13.70
2016,11,08,03,25,13.70
2016,11,08,03,26,13.80
2016,11,08,03,27,13.80
2016,11,08,03,28,13.80
2016,11,08,03,29,13.80
2016,11,08,03,30,13.70
2016,11,08,03,31,13.70
2016,11,08,03,32,13.70
2016,11,08,03,33,13.70
2016,11,08,03,34,13.70
2016,11,08,03,35,13.70
2016,11,08,03,36,13.70
2016,11,08,03,37,13.70
2016,11,08,03,38,13.80
2016,11,08,03,39,13.80
2016,11,08,03,40,13.80
2016,11,08,03,41,13.80
2016,11,08,03,42,13.80
2016,11,08,03,43,13.80
2016,11,08,03,44,13.90
2016,11,08,03,45,13.90
2016,11,08,03,46,13.90
2016,11,08,03,47,13.90
2016,11,08,03,48,14.00
2016,11,08,03,49,14.00
2016,11,08,03,50,14.00
2016,11,08,03,51,14.00
2016,11,08,03,52,14.00
2016,11,08,03,53,14.00
2016,11,08,03,54,13.90
2016,11,08,03,55,13.90
2016,11,08,03,56,13.80
2016,11,08,03,57,13.80
2016,11,08,03,58,13.70
2016,11,08,03,59,13.60
2016,11,08,04,00,13.50
2016,11,08,04,01,13.50
2016,11,08,04,02,13.40
2016,11,08,04,03,13.40
2016,11,08,04,04,13.30
2016,11,08,04,05,13.30
2016,11,08,04,06,13.20
2016,11,08,04,07,13.20
2016,11,08,04,08,13.20
2016,11,08,04,09,13.10
2016,11,08,04,10,13.10
2016,11,08,04,11,13.10
2016,11,08,04,12,13.00
2016,11,08,04,13,13.00
2016,11,08,04,14,13.00
2016,11,08,04,15,12.90
2016,11,08,04,16,12.90
2016,11,08,04,17,12.90
2016,11,08,04,18,12.90
2016,11,08,04,19,12.80
2016,11,08,04,20,12.80
2016,11,08,04,21,12.80
2016,11,08,04,22,12.80
2016,11,08,04,23,12.80
2016,11,08,04,24,12.80
2016,11,08,04,25,12.70
2016,11,08,04,26,12.70
2016,11,08,04,27,12.70
2016,11,08,04,28,12.70
2016,11,08,04,29,12.70
2016,11,08,04,30,12.60
2016,11,08,04,31,12.60
2016,11,08,04,32,12.60
2016,11,08,04,33,12.60
2016,11,08,04,34,12.50
2016,11,08,04,35,12.50
2016,11,08,04,36,12.50
2016,11,08,04,37,12.40
2016,11,08,04,38,12.40
2016,11,08,04,39,12.40
2016,11,08,04,40,12.40
2016,11,08,04,41,12.30
2016,11,08,04,42,12.30
2016,11,08,04,43,12.30
2016,11,08,04,44,12.30
2016,11,08,04,45,12.30
2016,11,08,04,46,12.30
2016,11,08,04,47,12.30
2016,11,08,04,48,12.30
2016,11,08,04,49,12.30
2016,11,08,04,50,12.40
2016,11,08,04,51,12.40
2016,11,08,04,52,12.40
2016,11,08,04,53,12.50
2016,11,08,04,54,12.40
2016,11,08,04,55,12.40
2016,11,08,04,56,12.40
2016,11,08,04,57,12.40
2016,11,08,04,58,12.40
2016,11,08,04,59,12.40
2016,11,08,05,00,12.30
2016,11,08,05,01,12.30
2016,11,08,05,02,12.30
2016,11,08,05,03,12.30
2016,11,08,05,04,12.20
2016,11,08,05,05,12.30
2016,11,08,05,06,12.50
2016,11,08,05,07,12.60
2016,11,08,05,08,12.80
2016,11,08,05,09,12.80
2016,11,08,05,10,12.90
2016,11,08,05,11,12.90
2016,11,08,05,12,13.00
2016,11,08,05,13,13.00
2016,11,08,05,14,13.00
2016,11,08,05,15,13.20
2016,11,08,05,16,13.30
2016,11,08,05,17,13.30
2016,11,08,05,18,13.30
2016,11,08,05,19,13.40
2016,11,08,05,20,13.40
2016,11,08,05,21,13.50
2016,11,08,05,22,13.60
2016,11,08,05,23,13.60
2016,11,08,05,24,13.60
2016,11,08,05,25,13.50
2016,11,08,05,26,13.50
2016,11,08,05,27,13.50
2016,11,08,05,28,13.50
2016,11,08,05,29,13.50
2016,11,08,05,30,13.40
2016,11,08,05,31,13.40
2016,11,08,05,32,13.40
2016,11,08,05,33,13.50
2016,11,08,05,34,13.50
2016,11,08,05,35,13.40
2016,11,08,05,36,13.40
2016,11,08,05,37,13.40
2016,11,08,05,38,13.40
2016,11,08,05,39,13.40
2016,11,08,05,40,13.30
2016,11,08,05,41,13.30
2016,11,08,05,42,13.20
2016,11,08,05,43,13.20
2016,11,08,05,44,13.20
2016,11,08,05,45,13.10
2016,11,08,05,46,13.10
2016,11,08,05,47,13.00
2016,11,08,05,48,13.00
2016,11,08,05,49,12.90
2016,11,08,05,50,12.80
2016,11,08,05,51,12.80
2016,11,08,05,52,12.70
2016,11,08,05,53,12.70
2016,11,08,05,54,12.60
2016,11,08,05,55,12.50
2016,11,08,05,56,12.50
2016,11,08,05,57,12.40
2016,11,08,05,58,12.30
2016,11,08,05,59,12.30
2016,11,08,06,00,12.30
2016,11,08,06,01,12.20
2016,11,08,06,02,12.20
2016,11,08,06,03,12.20
2016,11,08,06,04,12.10
2016,11,08,06,05,12.10
2016,11,08,06,06,12.00
2016,11,08,06,07,12.00
2016,11,08,06,08,11.90
2016,11,08,06,09,11.90
2016,11,08,06,10,11.80
2016,11,08,06,11,11.80
2016,11,08,06,12,11.80
2016,11,08,06,13,11.80
2016,11,08,06,14,11.80
2016,11,08,06,15,11.80
2016,11,08,06,16,11.70
2016,11,08,06,17,11.70
2016,11,08,06,18,11.70
2016,11,08,06,19,11.70
2016,11,08,06,20,11.60
2016,11,08,06,21,11.60
2016,11,08,06,22,11.60
2016,11,08,06,23,11.60
2016,11,08,06,24,11.50
2016,11,08,06,25,11.50
2016,11,08,06,26,11.50
2016,11,08,06,27,11.50
2016,11,08,06,28,11.40
2016,11,08,06,29,11.40
2016,11,08,06,30,11.40
2016,11,08,06,31,11.30
2016,11,08,06,32,11.30
2016,11,08,06,33,11.30
2016,11,08,06,34,11.20
2016,11,08,06,35,11.20
2016,11,08,06,36,11.20
2016,11,08,06,37,11.20
2016,11,08,06,38,11.20
2016,11,08,06,39,11.20
2016,11,08,06,40,11.20
2016,11,08,06,41,11.20
2016,11,08,06,42,11.20
2016,11,08,06,43,11.20
2016,11,08,06,44,11.20
2016,11,08,06,45,11.20
2016,11,08,06,46,11.20
2016,11,08,06,47,11.20
2016,11,08,06,48,11.20
2016,11,08,06,49,11.20
2016,11,08,06,50,11.20
2016,11,08,06,51,11.20
2016,11,08,06,52,11.20
2016,11,08,06,53,11.20
2016,11,08,06,54,11.20
2016,11,08,06,55,11.20
2016,11,08,06,56,11.20
2016,11,08,06,57,11.20
2016,11,08,06,58,11.20
2016,11,08,06,59,11.20
2016,11,08,07,00,11.20
2016,11,08,07,01,11.20
2016,11,08,07,02,11.20
2016,11,08,07,03,11.20
2016,11,08,07,04,11.20
2016,11,08,07,05,11.20
2016,11,08,07,06,11.20
2016,11,08,07,07,11.30
2016,11,08,07,08,11.30
2016,11,08,07,09,11.30
2016,11,08,07,10,11.30
2016,11,08,07,11,11.30
2016,11,08,07,12,11.30
2016,11,08,07,13,11.30
2016,11,08,07,14,11.30
2016,11,08,07,15,11.20
2016,11,08,07,16,11.20
2016,11,08,07,17,11.10
2016,11,08,07,18,11.10
2016,11,08,07,19,11.00
2016,11,08,07,20,11.00
2016,11,08,07,21,10.90
2016,11,08,07,22,10.90
2016,11,08,07,23,10.90
2016,11,08,07,24,10.90
2016,11,08,07,25,10.90
2016,11,08,07,26,10.80
2016,11,08,07,27,10.80
2016,11,08,07,28,10.80
2016,11,08,07,29,10.90
2016,11,08,07,30,10.90
2016,11,08,07,31,10.90
2016,11,08,07,32,11.00
2016,11,08,07,33,11.00
2016,11,08,07,34,11.00
2016,11,08,07,35,11.10
2016,11,08,07,36,11.10
2016,11,08,07,37,11.20
2016,11,08,07,38,11.20
2016,11,08,07,39,11.20
2016,11,08,07,40,11.20
2016,11,08,07,41,11.30
2016,11,08,07,42,11.30
2016,11,08,07,43,11.30
2016,11,08,07,44,11.30
2016,11,08,07,45,11.30
2016,11,08,07,46,11.30
2016,11,08,07,47,11.40
2016,11,08,07,48,11.40
2016,11,08,07,49,11.40
2016,11,08,07,50,11.40
2016,11,08,07,51,11.40
2016,11,08,07,52,11.50
2016,11,08,07,53,11.50
2016,11,08,07,54,11.50
2016,11,08,07,55,11.60
2016,11,08,07,56,11.60
2016,11,08,07,57,11.60
2016,11,08,07,58,11.70
2016,11,08,07,59,11.80
2016,11,08,08,00,11.90
2016,11,08,08,01,12.00
2016,11,08,08,02,12.20
2016,11,08,08,03,12.30
2016,11,08,08,04,12.40
2016,11,08,08,05,12.50
2016,11,08,08,06,12.60
2016,11,08,08,07,12.70
2016,11,08,08,08,12.80
2016,11,08,08,09,12.90
2016,11,08,08,10,13.00
2016,11,08,08,11,13.10
2016,11,08,08,12,13.20
2016,11,08,08,13,13.30
2016,11,08,08,14,13.30
2016,11,08,08,15,13.40
2016,11,08,08,16,13.50
2016,11,08,08,17,13.60
2016,11,08,08,18,13.60
2016,11,08,08,19,13.70
2016,11,08,08,20,13.70
2016,11,08,08,21,13.80
2016,11,08,08,22,13.80
2016,11,08,08,23,13.80
2016,11,08,08,24,13.90
2016,11,08,08,25,14.00
2016,11,08,08,26,14.10
2016,11,08,08,27,14.10
2016,11,08,08,28,14.20
2016,11,08,08,29,14.30
2016,11,08,08,30,14.30
2016,11,08,08,31,14.30
2016,11,08,08,32,14.40
2016,11,08,08,33,14.40
2016,11,08,08,34,14.40
2016,11,08,08,35,14.40
2016,11,08,08,36,14.50
2016,11,08,08,37,14.50
2016,11,08,08,38,14.50
2016,11,08,08,39,14.60
2016,11,08,08,40,14.60
2016,11,08,08,41,14.60
2016,11,08,08,42,14.60
2016,11,08,08,43,14.60
2016,11,08,08,44,14.70
2016,11,08,08,45,14.70
2016,11,08,08,46,14.70
2016,11,08,08,47,14.70
2016,11,08,08,48,14.70
2016,11,08,08,49,14.60
2016,11,08,08,50,14.60
2016,11,08,08,51,14.60
2016,11,08,08,52,14.60
2016,11,08,08,53,14.60
2016,11,08,08,54,14.60
2016,11,08,08,55,14.60
2016,11,08,08,56,14.60
2016,11,08,08,57,14.60
2016,11,08,08,58,14.50
2016,11,08,08,59,14.50
2016,11,08,09,00,14.50
2016,11,08,09,01,14.40
2016,11,08,09,02,14.40
2016,11,08,09,03,14.40
2016,11,08,09,04,14.40
2016,11,08,09,05,14.40
2016,11,08,09,06,14.40
2016,11,08,09,07,14.40
2016,11,08,09,08,14.40
2016,11,08,09,09,14.40
2016,11,08,09,10,14.40
2016,11,08,09,11,14.40
2016,11,08,09,12,14.40
2016,11,08,09,13,14.40
2016,11,08,09,14,14.40
2016,11,08,09,15,14.30
2016,11,08,09,16,14.30
2016,11,08,09,17,14.30
2016,11,08,09,18,14.30
2016,11,08,09,19,14.30
2016,11,08,09,20,14.20
2016,11,08,09,21,14.20
2016,11,08,09,22,14.20
2016,11,08,09,23,14.20
2016,11,08,09,24,14.20
2016,11,08,09,25,14.20
2016,11,08,09,26,14.20
2016,11,08,09,27,14.30
2016,11,08,09,28,14.30
2016,11,08,09,29,14.30
2016,11,08,09,30,14.30
2016,11,08,09,31,14.30
2016,11,08,09,32,14.30
2016,11,08,09,33,14.30
2016,11,08,09,34,14.30
2016,11,08,09,35,14.40
2016,11,08,09,36,14.40
2016,11,08,09,37,14.40
2016,11,08,09,38,14.40
2016,11,08,09,39,14.50
2016,11,08,09,40,14.50
2016,11,08,09,41,14.60
2016,11,08,09,42,14.70
2016,11,08,09,43,14.80
2016,11,08,09,44,14.80
2016,11,08,09,45,14.90
2016,11,08,09,46,14.90
2016,11,08,09,47,15.00
2016,11,08,09,48,15.10
2016,11,08,09,49,15.10
2016,11,08,09,50,15.20
2016,11,08,09,51,15.20
2016,11,08,09,52,15.20
2016,11,08,09,53,15.20
2016,11,08,09,54,15.20
2016,11,08,09,55,15.20
2016,11,08,09,56,15.10
2016,11,08,09,57,15.10
2016,11,08,09,58,15.10
2016,11,08,09,59,15.10
2016,11,08,10,00,15.10
2016,11,08,10,01,15.10
2016,11,08,10,02,15.10
2016,11,08,10,03,15.10
2016,11,08,10,04,15.10
2016,11,08,10,05,15.10
2016,11,08,10,06,15.10
2016,11,08,10,07,15.10
2016,11,08,10,08,15.10
2016,11,08,10,09,15.10
2016,11,08,10,10,15.10
2016,11,08,10,11,15.10
2016,11,08,10,12,15.10
2016,11,08,10,13,15.10
2016,11,08,10,14,15.10
2016,11,08,10,15,15.10
2016,11,08,10,16,15.10
2016,11,08,10,17,15.00
2016,11,08,10,18,14.90
2016,11,08,10,19,14.90
2016,11,08,10,20,14.90
2016,11,08,10,21,14.90
2016,11,08,10,22,14.80
2016,11,08,10,23,14.80
2016,11,08,10,24,14.80
2016,11,08,10,25,14.80
2016,11,08,10,26,14.80
2016,11,08,10,27,14.90
2016,11,08,10,28,14.90
2016,11,08,10,29,14.80
2016,11,08,10,30,14.70
2016,11,08,10,31,14.70
2016,11,08,10,32,14.70
2016,11,08,10,33,14.60
2016,11,08,10,34,14.60
2016,11,08,10,35,14.60
2016,11,08,10,36,14.60
2016,11,08,10,37,14.60
2016,11,08,10,38,14.60
2016,11,08,10,39,14.60
2016,11,08,10,40,14.70
2016,11,08,10,41,14.60
2016,11,08,10,42,14.50
2016,11,08,10,43,14.50
2016,11,08,10,44,14.40
2016,11,08,10,45,14.40
2016,11,08,10,46,14.40
2016,11,08,10,47,14.30
2016,11,08,10,48,14.30
2016,11,08,10,49,14.30
2016,11,08,10,50,14.40
2016,11,08,10,51,14.40
2016,11,08,10,52,14.40
2016,11,08,10,53,14.50
2016,11,08,10,54,14.50
2016,11,08,10,55,14.60
2016,11,08,10,56,14.60
2016,11,08,10,57,14.70
2016,11,08,10,58,14.60
2016,11,08,10,59,14.60
2016,11,08,11,00,14.60
2016,11,08,11,01,14.60
2016,11,08,11,02,14.50
2016,11,08,11,03,14.50
2016,11,08,11,04,14.40
2016,11,08,11,05,14.40
2016,11,08,11,06,14.30
2016,11,08,11,07,14.30
2016,11,08,11,08,14.20
2016,11,08,11,09,14.10
2016,11,08,11,10,14.10
2016,11,08,11,11,14.00
2016,11,08,11,12,14.00
2016,11,08,11,13,14.00
2016,11,08,11,14,14.10
2016,11,08,11,15,14.10
2016,11,08,11,16,14.20
2016,11,08,11,17,14.30
2016,11,08,11,18,14.40
2016,11,08,11,19,14.40
2016,11,08,11,20,14.50
2016,11,08,11,21,14.50
2016,11,08,11,22,14.40
2016,11,08,11,23,14.30
2016,11,08,11,24,14.20
2016,11,08,11,25,14.20
2016,11,08,11,26,14.00
2016,11,08,11,27,13.90
2016,11,08,11,28,13.80
2016,11,08,11,29,13.80
2016,11,08,11,30,13.70
2016,11,08,11,31,13.60
2016,11,08,11,32,13.50
2016,11,08,11,33,13.50
2016,11,08,11,34,13.40
2016,11,08,11,35,13.50
2016,11,08,11,36,13.50
2016,11,08,11,37,13.50
2016,11,08,11,38,13.50
2016,11,08,11,39,13.50
2016,11,08,11,40,13.50
2016,11,08,11,41,13.60
2016,11,08,11,42,13.60
2016,11,08,11,43,13.60
2016,11,08,11,44,13.60
2016,11,08,11,45,13.70
2016,11,08,11,46,13.60
2016,11,08,11,47,13.60
2016,11,08,11,48,13.70
2016,11,08,11,49,13.70
2016,11,08,11,50,13.80
2016,11,08,11,51,13.80
2016,11,08,11,52,13.80
2016,11,08,11,53,13.80
2016,11,08,11,54,13.80
2016,11,08,11,55,13.80
2016,11,08,11,56,13.80
2016,11,08,11,57,13.80
2016,11,08,11,58,13.80
2016,11,08,11,59,13.80
2016,11,08,12,00,13.80
2016,11,08,12,01,13.80
2016,11,08,12,02,13.80
2016,11,08,12,03,13.90
2016,11,08,12,04,13.90
2016,11,08,12,05,14.00
2016,11,08,12,06,14.00
2016,11,08,12,07,14.10
2016,11,08,12,08,14.00
2016,11,08,12,09,13.90
2016,11,08,12,10,13.90
2016,11,08,12,11,13.80
2016,11,08,12,12,13.80
2016,11,08,12,13,13.80
2016,11,08,12,14,13.80
2016,11,08,12,15,13.90
2016,11,08,12,16,13.90
2016,11,08,12,17,13.90
2016,11,08,12,18,13.90
2016,11,08,12,19,13.90
2016,11,08,12,20,13.90
2016,11,08,12,21,14.00
2016,11,08,12,22,14.00
2016,11,08,12,23,14.10
2016,11,08,12,24,14.10
2016,11,08,12,25,14.20
2016,11,08,12,26,14.30
2016,11,08,12,27,14.40
2016,11,08,12,28,14.50
2016,11,08,12,29,14.50
2016,11,08,12,30,14.50
2016,11,08,12,31,14.50
2016,11,08,12,32,14.60
2016,11,08,12,33,14.70
2016,11,08,12,34,14.80
2016,11,08,12,35,14.80
2016,11,08,12,36,14.90
2016,11,08,12,37,15.00
2016,11,08,12,38,15.10
2016,11,08,12,39,15.10
2016,11,08,12,40,15.20
2016,11,08,12,41,15.20
2016,11,08,12,42,15.20
2016,11,08,12,43,15.20
2016,11,08,12,44,15.30
2016,11,08,12,45,15.30
2016,11,08,12,46,15.40
2016,11,08,12,47,15.40
2016,11,08,12,48,15.50
2016,11,08,12,49,15.50
2016,11,08,12,50,15.50
2016,11,08,12,51,15.60
2016,11,08,12,52,15.60
2016,11,08,12,53,15.60
2016,11,08,12,54,15.60
2016,11,08,12,55,15.60
2016,11,08,12,56,15.70
2016,11,08,12,57,15.70
2016,11,08,12,58,15.70
2016,11,08,12,59,15.70
2016,11,08,13,00,15.70
2016,11,08,13,01,15.70
2016,11,08,13,02,15.70
2016,11,08,13,03,15.70
2016,11,08,13,04,15.60
2016,11,08,13,05,15.60
2016,11,08,13,06,15.50
2016,11,08,13,07,15.50
2016,11,08,13,08,15.50
2016,11,08,13,09,15.40
2016,11,08,13,10,15.40
2016,11,08,13,11,15.40
2016,11,08,13,12,15.50
2016,11,08,13,13,15.50
2016,11,08,13,14,15.60
2016,11,08,13,15,15.60
2016,11,08,13,16,15.70
2016,11,08,13,17,15.70
2016,11,08,13,18,15.70
2016,11,08,13,19,15.80
2016,11,08,13,20,15.80
2016,11,08,13,21,15.80
2016,11,08,13,22,15.80
2016,11,08,13,23,15.80
2016,11,08,13,24,15.80
2016,11,08,13,25,15.80
2016,11,08,13,26,15.90
2016,11,08,13,27,15.90
2016,11,08,13,28,16.00
2016,11,08,13,29,16.00
2016,11,08,13,30,16.10
2016,11,08,13,31,16.10
2016,11,08,13,32,16.20
2016,11,08,13,33,16.20
2016,11,08,13,34,16.30
2016,11,08,13,35,16.40
2016,11,08,13,36,16.40
2016,11,08,13,37,16.50
2016,11,08,13,38,16.50
2016,11,08,13,39,16.60
2016,11,08,13,40,16.60
2016,11,08,13,41,16.70
2016,11,08,13,42,16.70
2016,11,08,13,43,16.80
2016,11,08,13,44,16.80
2016,11,08,13,45,16.90
2016,11,08,13,46,16.90
2016,11,08,13,47,16.90
2016,11,08,13,48,16.90
2016,11,08,13,49,17.00
2016,11,08,13,50,17.00
2016,11,08,13,51,17.00
2016,11,08,13,52,17.10
2016,11,08,13,53,17.10
2016,11,08,13,54,17.10
2016,11,08,13,55,17.10
2016,11,08,13,56,17.20
2016,11,08,13,57,17.20
2016,11,08,13,58,17.20
2016,11,08,13,59,17.20
2016,11,08,14,00,17.20
2016,11,08,14,01,17.20
2016,11,08,14,02,17.30
2016,11,08,14,03,17.30
2016,11,08,14,04,17.40
2016,11,08,14,05,17.40
2016,11,08,14,06,17.50
2016,11,08,14,07,17.50
2016,11,08,14,08,17.50
2016,11,08,14,09,17.50
2016,11,08,14,10,17.50
2016,11,08,14,11,17.50
2016,11,08,14,12,17.60
2016,11,08,14,13,17.60
2016,11,08,14,14,17.70
2016,11,08,14,15,17.70
2016,11,08,14,16,17.70
2016,11,08,14,17,17.70
2016,11,08,14,18,17.70
2016,11,08,14,19,17.70
2016,11,08,14,20,17.70
2016,11,08,14,21,17.70
2016,11,08,14,22,17.70
2016,11,08,14,23,17.60
2016,11,08,14,24,17.60
2016,11,08,14,25,17.50
2016,11,08,14,26,17.40
2016,11,08,14,27,17.30
2016,11,08,14,28,17.10
2016,11,08,14,29,16.90
2016,11,08,14,30,16.70
2016,11,08,14,31,16.60
2016,11,08,14,32,16.50
2016,11,08,14,33,16.40
2016,11,08,14,34,16.30
2016,11,08,14,35,16.30
2016,11,08,14,36,16.20
2016,11,08,14,37,16.10
2016,11,08,14,38,16.10
2016,11,08,14,39,16.00
2016,11,08,14,40,16.00
2016,11,08,14,41,15.90
2016,11,08,14,42,15.80
2016,11,08,14,43,15.80
2016,11,08,14,44,15.70
2016,11,08,14,45,15.70
2016,11,08,14,46,15.60
2016,11,08,14,47,15.60
2016,11,08,14,48,15.60
2016,11,08,14,49,15.60
2016,11,08,14,50,15.60
2016,11,08,14,51,15.60
2016,11,08,14,52,15.60
2016,11,08,14,53,15.60
2016,11,08,14,54,15.60
2016,11,08,14,55,15.60
2016,11,08,14,56,15.60
2016,11,08,14,57,15.60
2016,11,08,14,58,15.50
2016,11,08,14,59,15.50
2016,11,08,15,00,15.50
2016,11,08,15,01,15.50
2016,11,08,15,02,15.40
2016,11,08,15,03,15.40
2016,11,08,15,04,15.40
2016,11,08,15,05,15.40
2016,11,08,15,06,15.40
2016,11,08,15,07,15.40
2016,11,08,15,08,15.40
2016,11,08,15,09,15.30
2016,11,08,15,10,15.30
2016,11,08,15,11,15.30
2016,11,08,15,12,15.30
2016,11,08,15,13,15.30
2016,11,08,15,14,15.30
2016,11,08,15,15,15.30
2016,11,08,15,16,15.30
2016,11,08,15,17,15.30
2016,11,08,15,18,15.30
2016,11,08,15,19,15.30
2016,11,08,15,20,15.40
2016,11,08,15,21,15.40
2016,11,08,15,22,15.40
2016,11,08,15,23,15.40
2016,11,08,15,24,15.40
2016,11,08,15,25,15.40
2016,11,08,15,26,15.40
2016,11,08,15,27,15.30
2016,11,08,15,28,15.30
2016,11,08,15,29,15.30
2016,11,08,15,30,15.30
2016,11,08,15,31,15.30
2016,11,08,15,32,15.30
2016,11,08,15,33,15.30
2016,11,08,15,34,15.30
2016,11,08,15,35,15.30
2016,11,08,15,36,15.20
2016,11,08,15,37,15.20
2016,11,08,15,38,15.20
2016,11,08,15,39,15.20
2016,11,08,15,40,15.20
2016,11,08,15,41,15.20
2016,11,08,15,42,15.20
2016,11,08,15,43,15.20
2016,11,08,15,44,15.20
2016,11,08,15,45,15.20
2016,11,08,15,46,15.20
2016,11,08,15,47,15.20
2016,11,08,15,48,15.20
2016,11,08,15,49,15.20
2016,11,08,15,50,15.20
2016,11,08,15,51,15.20
2016,11,08,15,52,15.20
2016,11,08,15,53,15.20
2016,11,08,15,54,15.10
2016,11,08,15,55,15.10
2016,11,08,15,56,15.10
2016,11,08,15,57,15.10
2016,11,08,15,58,15.10
2016,11,08,15,59,15.00
2016,11,08,16,00,15.00
2016,11,08,16,01,14.90
2016,11,08,16,02,14.90
2016,11,08,16,03,14.90
2016,11,08,16,04,14.80
2016,11,08,16,05,14.80
2016,11,08,16,06,14.80
2016,11,08,16,07,14.80
2016,11,08,16,08,14.80
2016,11,08,16,09,14.80
2016,11,08,16,10,14.70
2016,11,08,16,11,14.70
2016,11,08,16,12,14.70
2016,11,08,16,13,14.60
2016,11,08,16,14,14.60
2016,11,08,16,15,14.60
2016,11,08,16,16,14.60
2016,11,08,16,17,14.50
2016,11,08,16,18,14.50
2016,11,08,16,19,14.40
2016,11,08,16,20,14.40
2016,11,08,16,21,14.30
2016,11,08,16,22,14.30
2016,11,08,16,23,14.30
2016,11,08,16,24,14.30
2016,11,08,16,25,14.20
2016,11,08,16,26,14.20
2016,11,08,16,27,14.20
2016,11,08,16,28,14.20
2016,11,08,16,29,14.10
2016,11,08,16,30,14.10
2016,11,08,16,31,14.10
2016,11,08,16,32,14.10
2016,11,08,16,33,14.00
2016,11,08,16,34,14.00
2016,11,08,16,35,14.00
2016,11,08,16,36,13.90
2016,11,08,16,37,13.90
2016,11,08,16,38,13.90
2016,11,08,16,39,13.90
2016,11,08,16,40,13.90
2016,11,08,16,41,13.90
2016,11,08,16,42,13.80
2016,11,08,16,43,13.80
2016,11,08,16,44,13.80
2016,11,08,16,45,13.80
2016,11,08,16,46,13.70
2016,11,08,16,47,13.70
2016,11,08,16,48,13.70
2016,11,08,16,49,13.70
2016,11,08,16,50,13.70
2016,11,08,16,51,13.70
2016,11,08,16,52,13.60
2016,11,08,16,53,13.60
2016,11,08,16,54,13.60
2016,11,08,16,55,13.60
2016,11,08,16,56,13.60
2016,11,08,16,57,13.60
2016,11,08,16,58,13.60
2016,11,08,16,59,13.60
2016,11,08,17,00,13.60
2016,11,08,17,01,13.60
2016,11,08,17,02,13.60
2016,11,08,17,03,13.60
2016,11,08,17,04,13.60
2016,11,08,17,05,13.60
2016,11,08,17,06,13.50
2016,11,08,17,07,13.50
2016,11,08,17,08,13.50
2016,11,08,17,09,13.50
2016,11,08,17,10,13.50
2016,11,08,17,11,13.40
2016,11,08,17,12,13.40
2016,11,08,17,13,13.40
2016,11,08,17,14,13.40
2016,11,08,17,15,13.40
2016,11,08,17,16,13.30
2016,11,08,17,17,13.30
2016,11,08,17,18,13.30
2016,11,08,17,19,13.30